Simultaneous Nadir Overpasses (SNOs) Predictions

Prediction of SNOs between NPP and TERRA Satellite Orbit:

Table of predicted SNOs for the next 14.0 days since TLE Epoch: 4/27/2024
Index Date (NPP) Time (NPP) Lat,Lon (NPP) SZA (NPP ) Date (TERRA) Time (TERRA) Lat,Lon (TERRA) SZA (TERRA ) Distance(km) Time Diff (sec)
1 04/27/2024 04:01:35 72.01, 112.87 58.05 04/27/2024 04:01:30 72.00, 112.78 58.04 3.11 5
2 04/27/2024 04:52:10 -71.55, -78.98 122.45 04/27/2024 04:50:59 -71.61, -80.20 122.34 43.38 71
3 04/29/2024 15:14:01 72.09, -55.40 57.37 04/29/2024 15:15:00 72.08, -55.50 57.34 3.80 59
4 04/29/2024 16:04:43 -72.00, 112.10 122.75 04/29/2024 16:04:23 -72.02, 112.07 122.73 2.78 20
5 05/02/2024 03:17:09 -72.10, -56.19 123.39 05/02/2024 03:17:52 -72.09, -56.22 123.40 0.95 43
6 05/02/2024 04:07:53 72.00, 111.30 56.50 05/02/2024 04:07:14 72.01, 111.30 56.51 1.07 39
7 05/04/2024 15:20:18 72.07, -56.93 55.85 05/04/2024 15:20:42 72.06, -57.01 55.85 2.82 24
8 05/04/2024 16:11:00 -72.02, 110.49 124.22 05/04/2024 16:10:04 -72.02, 110.57 124.21 2.99 56
9 05/07/2024 02:32:51 72.62, 133.89 55.75 05/07/2024 02:34:00 72.54, 135.43 55.60 51.78 69
10 05/07/2024 03:23:25 -72.10, -57.77 124.82 05/07/2024 03:23:31 -72.07, -57.75 124.85 3.04 6
11 05/07/2024 04:14:06 71.86, 110.00 54.91 05/07/2024 04:12:54 71.92, 109.65 55.00 13.65 72
12 05/09/2024 14:35:49 -72.15, 134.04 125.43 05/09/2024 14:36:56 -72.16, 134.02 125.43 2.16 67
13 05/09/2024 15:26:33 72.06, -58.49 54.47 05/09/2024 15:26:18 72.05, -58.51 54.46 1.21 15



Historial Predications of SNOs between NPP and TERRA
